Location: Caltech
(34.1382°N, 118.1253°W)
Time: 17:50:08
(UTC-07:00)

AO-Echo - Visible Passes

Search period start: 22 July 2017 00:00
Search period end: 01 August 2017 00:00
Orbit: 693 x 811 km, 98.4° (Epoch: 22 July)

Date Brightness Start Highest point End Pass type
(mag) Time Alt. Az. Time Alt. Az. Time Alt. Az.
22 Jul ? 01:45:55 10° NNE 01:48:16 26° NE 01:48:16 26° NE visible
22 Jul ? 03:25:56 10° NNW 03:28:12 16° WNW 03:28:12 16° WNW visible
23 Jul ? 01:06:53 10° NE 01:07:13 11° ENE 01:07:13 11° ENE visible
23 Jul ? 02:44:11 10° N 02:47:09 32° NNW 02:47:09 32° NNW visible
24 Jul ? 02:03:30 10° NNE 02:06:05 32° NNE 02:06:05 32° NNE visible
24 Jul ? 03:45:47 10° WNW 03:46:01 10° WNW 03:46:01 10° WNW visible
25 Jul ? 01:23:45 10° NE 01:25:02 16° NE 01:25:02 16° NE visible
25 Jul ? 03:02:18 10° NNW 03:04:58 24° NW 03:04:58 24° NW visible
26 Jul ? 02:21:13 10° N 02:23:54 34° N 02:23:54 34° N visible
27 Jul ? 01:41:01 10° NNE 01:42:51 21° NE 01:42:51 21° NE visible
27 Jul ? 03:20:42 10° NNW 03:22:47 17° NW 03:22:47 17° NW visible
28 Jul ? 02:39:07 10° N 02:41:43 30° NNW 02:41:43 30° NNW visible
29 Jul ? 01:58:32 10° NNE 02:00:40 26° NNE 02:00:40 26° NNE visible
29 Jul ? 03:39:50 10° NW 03:40:35 11° NW 03:40:35 11° NW visible
30 Jul ? 01:18:56 10° NE 01:19:36 13° NE 01:19:36 13° NE visible
30 Jul ? 02:57:11 10° N 02:59:32 23° NNW 02:59:32 23° NNW visible
31 Jul ? 02:16:12 10° N 02:18:28 28° N 02:18:28 28° N visible
